TimePST,TemperatureF,Dew PointF,Humidity,Sea Level PressureIn,VisibilityMPH,Wind Direction,Wind SpeedMPH,Gust SpeedMPH,PrecipitationIn,Events,Conditions,WindDirDegrees,DateUTC
12:56 AM,44.1,19.9,38,30.32,10.0,Calm,Calm,-,N/A,,Clear,0,2012-11-05 08:56:00
1:56 AM,43.0,19.9,40,30.33,10.0,NE,4.6,-,N/A,,Clear,50,2012-11-05 09:56:00
2:56 AM,42.1,19.9,41,30.33,10.0,North,8.1,-,N/A,,Clear,10,2012-11-05 10:56:00
3:56 AM,44.1,21.0,40,30.32,10.0,North,11.5,-,N/A,,Clear,10,2012-11-05 11:56:00
4:56 AM,42.1,21.0,43,30.36,10.0,North,9.2,-,N/A,,Clear,360,2012-11-05 12:56:00
5:56 AM,42.1,21.9,45,30.37,10.0,North,10.4,-,N/A,,Clear,360,2012-11-05 13:56:00
6:56 AM,42.1,23.0,47,30.39,10.0,NNW,8.1,-,N/A,,Clear,340,2012-11-05 14:56:00
7:56 AM,52.0,24.1,34,30.38,10.0,NE,6.9,-,N/A,,Clear,40,2012-11-05 15:56:00
8:56 AM,60.1,26.1,27,30.35,10.0,NNE,8.1,-,N/A,,Clear,30,2012-11-05 16:56:00
9:56 AM,63.0,26.1,25,30.35,10.0,NW,3.5,-,N/A,,Clear,310,2012-11-05 17:56:00
10:56 AM,66.9,27.0,22,30.30,10.0,NNW,6.9,-,N/A,,Clear,330,2012-11-05 18:56:00
11:56 AM,68.0,27.0,21,30.25,10.0,SSW,4.6,-,N/A,,Clear,210,2012-11-05 19:56:00
12:56 PM,70.0,27.0,20,30.24,10.0,West,6.9,-,N/A,,Clear,260,2012-11-05 20:56:00
1:56 PM,71.1,26.1,19,30.22,10.0,WNW,12.7,-,N/A,,Clear,300,2012-11-05 21:56:00
2:56 PM,70.0,25.0,18,30.24,10.0,West,12.7,-,N/A,,Clear,280,2012-11-05 22:56:00
3:56 PM,68.0,25.0,20,30.23,10.0,WNW,9.2,-,N/A,,Clear,290,2012-11-05 23:56:00
4:56 PM,61.0,26.1,26,30.26,10.0,NW,8.1,-,N/A,,Clear,310,2012-11-06 00:56:00
5:56 PM,57.9,25.0,28,30.29,10.0,NNW,5.8,-,N/A,,Clear,330,2012-11-06 01:56:00
6:56 PM,55.0,25.0,31,30.29,10.0,North,6.9,-,N/A,,Clear,360,2012-11-06 02:56:00
7:56 PM,52.0,25.0,35,30.28,10.0,NNW,5.8,-,N/A,,Clear,340,2012-11-06 03:56:00
8:56 PM,48.9,25.0,39,30.27,10.0,North,5.8,-,N/A,,Clear,350,2012-11-06 04:56:00
9:56 PM,48.0,25.0,41,30.26,10.0,North,8.1,-,N/A,,Clear,350,2012-11-06 05:56:00
10:56 PM,48.0,23.0,37,30.25,10.0,North,13.8,-,N/A,,Clear,10,2012-11-06 06:56:00
11:56 PM,46.9,23.0,39,30.24,10.0,NNE,12.7,-,N/A,,Clear,20,2012-11-06 07:56:00